Location: Newark
(44.1667°N, 8.2500°E)
Time: 01:53:51
(UTC+00:00)

Courier 1B Rocket - All Passes

Search period start: 10 December 2019 00:00
Search period end: 20 December 2019 00:00
Orbit: 920 x 1202 km, 28.2° (Epoch: 09 December)

Date Brightness Start Highest point End Pass type
(mag) Time Alt. Az. Time Alt. Az. Time Alt. Az.
10 Dec - 06:24:49 10° SSW 06:28:52 17° S 06:32:48 10° SE daylight
10 Dec - 08:16:59 10° SW 08:21:13 18° S 08:25:20 10° SE daylight
10 Dec - 10:11:31 10° SW 10:13:25 11° SSW 10:15:20 10° S daylight
11 Dec - 05:24:31 10° SSW 05:28:09 15° SSE 05:31:41 10° SE visible
11 Dec - 07:16:02 10° SW 07:20:31 19° S 07:24:51 10° SE daylight
11 Dec - 09:09:31 10° SW 09:12:48 14° SSW 09:16:02 10° SSE daylight
12 Dec - 04:24:39 10° S 04:27:25 13° SSE 04:30:08 10° SE visible
12 Dec - 06:15:13 10° SW 06:19:48 19° S 06:24:13 10° SE visible
12 Dec - 08:08:06 10° SW 08:12:09 17° S 08:16:06 10° SSE daylight
13 Dec - 05:14:33 10° SSW 05:19:03 18° S 05:23:23 10° SE visible
13 Dec - 07:06:54 10° SW 07:11:28 19° S 07:15:51 10° SE daylight
13 Dec - 09:01:33 10° SW 09:03:42 12° SSW 09:05:48 10° S daylight
14 Dec - 04:14:06 10° SSW 04:18:18 16° SSE 04:22:19 10° SE visible
14 Dec - 06:05:52 10° SW 06:10:44 20° S 06:15:24 10° SE visible
14 Dec - 07:59:29 10° SW 08:03:04 15° SSW 08:06:33 10° SSE daylight
15 Dec - 03:14:03 10° S 03:17:31 14° SSE 03:20:53 10° SE visible
15 Dec - 05:04:57 10° SW 05:09:57 20° S 05:14:45 10° SE visible
15 Dec - 06:57:58 10° SW 07:02:23 18° S 07:06:37 10° SSE daylight
16 Dec - 02:14:59 10° S 02:16:43 11° SSE 02:18:27 10° SE visible
16 Dec - 04:04:11 10° SW 04:09:10 19° S 04:13:55 10° SE visible
16 Dec - 05:56:41 10° SW 06:01:39 20° S 06:06:23 10° SE visible
16 Dec - 07:51:20 10° SW 07:53:55 12° SSW 07:56:27 10° S daylight
17 Dec - 03:03:41 10° SSW 03:08:20 18° SSE 03:12:50 10° SE visible
17 Dec - 04:55:34 10° SW 05:00:51 22° S 05:05:54 10° SE visible
17 Dec - 06:49:15 10° SW 06:53:14 16° SSW 06:57:06 10° SSE daylight
18 Dec - 02:03:32 10° SSW 02:07:30 15° SSE 02:11:24 10° SE visible
18 Dec - 03:54:37 10° SW 04:00:01 22° S 04:05:13 10° SE visible
18 Dec - 05:47:42 10° SW 05:52:31 19° SSW 05:57:08 10° SSE visible
19 Dec - 01:04:11 10° S 01:06:41 12° SSE 01:09:11 10° SE night (unlit)
19 Dec - 02:53:50 10° SW 02:59:09 21° S 03:04:19 10° SE visible
19 Dec - 04:46:23 10° SW 04:51:44 21° S 04:56:50 10° SE visible
19 Dec - 06:40:58 10° SW 06:44:04 13° SSW 06:47:05 10° S daylight
